DateTimeUTC,F1_A11,F1_S11,BsB_S11,BsG_S11,BsR_S11,BbsB_S11,BbsG_S11,BbsR_S11,BaB_A11,BaG_A11,BaR_A11,Tu_S11,T_S11,Uu_S11,U_S11,P_S11,T1_A11
2021-12-18T11:00:00Z,00000200,21000000,,,,,,,0000.19,0000.10,-000.01,18.2,25.4,,00.0,0663.3,30.9
2021-12-18T11:01:00Z,00000200,21000000,,,,,,,-000.18,0000.03,0000.20,18.2,25.4,,00.0,0663.4,30.9
2021-12-18T11:02:00Z,00000200,21000000,,,,,,,0000.05,-000.12,-000.42,18.2,25.4,,00.0,0663.4,30.9
2021-12-18T11:03:00Z,00000200,61000000,,,,,,,0000.08,-000.18,0000.30,18.2,25.4,,00.0,0663.4,30.9
2021-12-18T11:04:00Z,00000200,41000000,-000.45,0000.10,0000.02,-000.08,-000.06,0000.03,0000.08,-000.11,-000.03,18.5,25.2,,00.0,0664.4,30.9
2021-12-18T11:05:00Z,00000200,01000000,0000.35,0000.18,-000.02,-000.18,-000.32,0000.04,-000.04,0000.45,0000.04,18.6,25.2,,00.0,0664.5,30.9
2021-12-18T11:06:00Z,00000200,01000000,0000.10,-000.12,-000.17,-000.23,-000.10,0000.09,0000.00,-000.12,0000.02,18.6,25.1,,00.0,0664.5,30.9
2021-12-18T11:07:00Z,00000200,01000000,-000.06,0000.12,0000.10,-000.15,-000.11,0000.40,0000.02,0000.06,-000.06,18.7,25.2,,00.0,0664.5,30.9
2021-12-18T11:08:00Z,00000200,01000000,0000.17,0000.28,-000.23,-000.52,0000.05,0000.05,0000.15,-000.00,-000.20,18.6,25.2,,00.0,0664.5,30.9
2021-12-18T11:09:00Z,00000200,01000000,0000.01,0000.35,0000.32,-000.01,-000.08,0000.12,-000.31,-000.23,0000.10,18.6,25.1,,00.0,0664.5,30.9
2021-12-18T11:10:00Z,00000200,01000000,0000.08,0000.14,-000.06,-000.27,0000.07,0000.13,0000.00,0000.06,0000.28,18.6,25.1,,00.0,0664.5,30.9
2021-12-18T11:11:00Z,00000200,01000000,0000.01,0000.01,0000.06,0000.01,0000.20,0000.32,0000.20,-000.05,-000.15,18.6,25.1,,00.0,0664.5,30.9
2021-12-18T11:12:00Z,00000200,01000000,0000.59,0000.29,-000.31,-000.40,-000.39,-000.15,0000.13,0000.41,-000.03,18.6,25.1,,00.0,0664.5,30.9
2021-12-18T11:13:00Z,00000200,01000000,0000.53,0000.14,0000.30,0000.48,-000.05,0000.52,-000.09,-000.03,0000.20,18.6,25.1,,00.0,0664.6,30.9
2021-12-18T11:14:00Z,00000200,01000000,0000.07,-000.01,0000.15,0000.34,-000.26,0000.09,-000.04,0000.38,0000.01,18.6,25.1,,00.0,0664.6,30.9
2021-12-18T11:15:00Z,00000200,01000000,0000.63,0000.10,-000.21,0000.52,-000.22,0000.22,-000.03,-000.61,-000.16,18.6,25.1,,00.0,0664.6,30.9
2021-12-18T11:16:00Z,00000200,01000000,0000.39,0000.17,0000.51,0000.66,-000.38,0000.22,0000.25,0000.28,0000.18,18.6,25.1,,00.0,0664.6,31.0
2021-12-18T11:17:00Z,00000200,01000000,0000.36,0000.09,-000.00,0000.45,0000.17,-000.00,0000.09,0000.28,-000.03,18.6,25.1,,00.0,0664.6,30.9
2021-12-18T11:18:00Z,00000200,01000000,0001.15,0000.10,-000.16,-000.43,0000.15,-000.06,0000.12,0000.18,0000.55,18.7,25.1,,00.0,0664.6,30.9
2021-12-18T11:19:00Z,00000200,01000000,-000.51,0000.21,0000.12,-000.63,0000.18,0000.13,-000.16,-000.25,-000.24,18.7,25.1,,00.0,0664.6,30.9
2021-12-18T11:20:00Z,00000200,01000000,-000.26,-000.03,0000.35,0000.10,0000.15,0000.21,-000.07,0000.31,-000.05,18.7,25.1,,00.0,0664.6,30.9
2021-12-18T11:21:00Z,00000200,01000000,-000.07,-000.10,-000.11,-000.35,-000.13,0000.16,0000.30,-000.28,0000.16,18.7,25.1,,00.0,0664.6,31.0
2021-12-18T11:22:00Z,00000200,01000000,0000.20,0000.03,-000.23,-000.09,0000.20,-000.09,0000.04,0000.25,-000.25,18.8,25.2,,00.0,0664.7,30.9
2021-12-18T11:23:00Z,00000200,01000000,0000.54,-000.18,-000.14,-000.21,-000.03,0000.27,-000.06,-000.03,0000.07,18.8,25.2,,00.0,0664.7,31.0
2021-12-18T11:24:00Z,00000200,01000000,-000.62,0000.02,0000.01,-000.17,-000.04,-000.25,0000.09,0000.11,0000.20,18.8,25.2,,00.0,0664.7,31.0
2021-12-18T11:25:00Z,00000200,01000000,0000.02,0000.10,-000.10,0000.09,-000.09,0000.14,0000.03,-000.21,-000.20,18.8,25.2,,00.0,0664.7,31.0
2021-12-18T11:26:00Z,00000200,01000000,0000.55,0000.06,0000.27,0000.19,-000.03,0000.25,0000.13,0000.12,0000.38,18.8,25.2,,00.0,0664.8,31.0
2021-12-18T11:27:00Z,00000200,01000000,-000.15,0000.19,0000.25,0000.54,0000.00,0000.19,-000.23,-000.08,-000.28,18.8,25.2,,00.0,0664.8,31.0
2021-12-18T11:28:00Z,00000200,01000000,0000.07,0000.01,0000.15,-000.37,0000.37,-000.31,0000.20,0000.39,0000.04,18.9,25.2,,00.0,0664.8,31.0
2021-12-18T11:29:00Z,00000200,01000000,0000.37,-000.20,-000.08,0000.51,-000.05,0000.06,0000.04,-000.40,0000.30,18.9,25.2,,00.0,0664.8,31.0
2021-12-18T11:30:00Z,00000200,01000000,0000.57,0000.28,-000.30,0000.09,-000.14,-000.03,0000.16,0000.26,0000.05,18.9,25.3,,00.0,0664.8,31.0
2021-12-18T11:31:00Z,00000200,01000000,0000.33,0000.07,-000.35,-000.02,0000.10,-000.04,0000.29,0000.24,0000.06,18.9,25.3,,00.0,0664.9,31.0
2021-12-18T11:32:00Z,00000200,01000000,0000.34,0000.16,0000.14,-000.10,0000.11,0000.06,0000.11,0000.62,0000.31,18.9,25.3,,00.0,0664.9,31.0
2021-12-18T11:33:00Z,00000200,01000000,0000.03,0000.11,-000.04,0000.56,-000.08,-000.31,-000.11,-000.21,-000.20,19.0,25.3,,00.0,0664.9,31.0
2021-12-18T11:34:00Z,00000200,01000000,-000.74,0000.04,-000.22,0000.04,-000.02,0000.16,-000.08,-000.07,0000.06,19.0,25.3,,00.0,0665.0,31.0
2021-12-18T11:35:00Z,00000200,01000000,0000.22,0000.10,0000.34,0000.33,0000.02,0000.25,0000.50,-000.02,-000.18,19.0,25.3,,00.0,0665.0,31.0
2021-12-18T11:36:00Z,00000200,01000000,0000.17,-000.02,-000.15,0000.23,0000.12,0000.07,-000.22,-000.06,-000.06,19.0,25.3,,00.0,0665.1,31.0
2021-12-18T11:37:00Z,00000200,01000000,0000.25,0000.31,0000.08,0000.32,-000.17,0000.13,0000.24,0000.13,-000.20,19.0,25.3,,00.0,0665.1,31.0
2021-12-18T11:38:00Z,00000200,01000000,0000.62,0000.36,0000.27,0000.44,0000.38,0000.55,-000.48,-000.02,0000.58,19.0,25.4,,00.0,0665.1,31.0
2021-12-18T11:39:00Z,00000200,01000000,0000.22,-000.14,-000.07,0000.45,-000.13,-000.01,0000.10,0000.18,-000.32,19.1,25.4,,00.0,0665.1,31.0
2021-12-18T11:40:00Z,00000200,01000000,-000.07,0000.08,-000.10,0000.69,-000.03,0000.11,-000.19,-000.03,0000.01,19.0,25.4,,00.0,0665.1,31.0
2021-12-18T11:41:00Z,00000200,01000000,0000.08,-000.13,0000.02,-000.29,-000.05,0000.07,-000.26,-000.89,-000.08,19.0,25.3,,00.0,0665.2,31.0
2021-12-18T11:42:00Z,00000200,01000000,0000.63,-000.04,-000.21,0000.26,-000.13,-000.33,0000.02,0000.03,0000.15,19.0,25.3,,00.0,0665.1,31.0
2021-12-18T11:43:00Z,00000200,01000000,0000.11,-000.16,0000.06,0000.11,-000.07,0000.00,0000.16,0000.36,-000.34,19.0,25.3,,00.0,0665.1,31.0
2021-12-18T11:44:00Z,00000200,01000000,-000.89,0000.25,0000.11,0000.25,0000.29,0000.03,-000.16,0000.23,0000.12,19.0,25.3,,00.0,0665.1,31.0
2021-12-18T11:45:00Z,00000200,01000000,-000.16,0000.04,0000.05,0000.24,0000.15,-000.08,0000.48,-000.17,0000.24,19.0,25.3,,00.0,0665.1,31.0
2021-12-18T11:46:00Z,00000200,01000000,0000.39,-000.03,0000.07,0000.16,-000.24,0000.11,-000.28,0000.02,-000.32,19.0,25.3,,00.0,0665.1,31.0
2021-12-18T11:47:00Z,00000200,01000000,0000.30,0000.22,0000.19,0000.05,-000.10,0000.01,0000.06,0000.20,0000.48,19.0,25.3,,00.0,0665.1,31.0
2021-12-18T11:48:00Z,00000200,01000000,0000.30,-000.08,0000.36,0000.22,-000.13,-000.16,0000.12,0000.26,-000.02,19.0,25.3,,00.0,0665.1,31.0
2021-12-18T11:49:00Z,00000200,01000000,0000.28,-000.13,0000.21,-000.54,-000.07,0000.00,0000.68,0000.09,0000.20,19.0,25.4,,00.0,0665.1,31.0
2021-12-18T11:50:00Z,00000200,01000000,-000.09,0000.40,0000.22,-000.28,0000.19,-000.09,-000.24,0000.08,-000.13,18.9,25.3,,00.0,0665.0,31.0
2021-12-18T11:51:00Z,00000200,01000000,0000.44,0000.11,-000.04,-000.26,-000.04,0000.10,0000.35,-000.04,0000.18,18.8,25.3,,00.0,0665.0,30.9
2021-12-18T11:52:00Z,00000200,01000000,0000.61,-000.22,0000.04,0000.56,0000.23,0000.20,0000.13,0000.25,0000.28,18.7,25.3,,00.0,0665.0,30.9
2021-12-18T11:53:00Z,00000200,01000000,-000.21,-000.09,0000.20,-000.39,-000.04,0000.15,0000.18,0000.16,0000.07,18.6,25.2,,00.0,0665.0,30.9
2021-12-18T11:54:00Z,00000200,01000000,0000.87,-000.06,-000.14,0000.65,0000.19,0000.20,-000.23,-000.39,-000.40,18.5,25.1,,00.0,0665.0,30.9
2021-12-18T11:55:00Z,00000200,01000000,0000.46,0000.06,0000.13,0000.41,-000.05,0000.14,-000.14,0000.15,0000.04,18.4,25.1,,00.0,0665.0,30.9
2021-12-18T11:56:00Z,00000200,01000000,0000.58,-000.20,0000.09,-000.44,-000.05,-000.03,0000.16,0000.08,0000.30,18.4,25.0,,00.0,0665.0,30.9
2021-12-18T11:57:00Z,00000200,41000000,,,,,,,0000.12,-000.04,-000.11,18.4,25.0,,00.0,0665.0,30.9
2021-12-18T11:58:00Z,00000200,61000000,,,,,,,-000.12,0000.41,0000.05,18.1,25.2,,00.0,0664.1,30.9
2021-12-18T11:59:00Z,00000200,21000000,,,,,,,-000.22,-000.61,-000.39,18.1,25.3,,00.0,0664.0,30.9
